• In Österreich
  • Länderverzeichnis
  • Für 7 Tage
  • Wassertemperatur
  • Satellitenkarten
  • Wetterkarte
  • News
  • Widgets
  • user-avatar
    Anmelden

    Stündliche Wetter Vezirköprü

    Heute, 19 November, Sonntag

    Zeit Temperatur Niederschläge Wind Luftdruck Luftfeuchtigkeit
    00:00 +13°C° 0 mm 2 m/S 726 mmHg 47%
    01:00 +13°C° 0 mm 2 m/S 726 mmHg 48%
    02:00 +13°C° 0 mm 3 m/S 725 mmHg 45%
    03:00 +12°C° 0 mm 3 m/S 725 mmHg 47%
    04:00 +12°C° 0 mm 3 m/S 725 mmHg 48%
    05:00 +12°C° 0 mm 2 m/S 725 mmHg 50%
    06:00 +13°C° 0 mm 2 m/S 725 mmHg 49%
    07:00 +14°C° 0 mm 2 m/S 725 mmHg 48%
    08:00 +14°C° 0 mm 2 m/S 725 mmHg 45%
    09:00 +16°C° 0 mm 2 m/S 725 mmHg 40%
    10:00 +18°C° 0 mm 2 m/S 725 mmHg 36%
    11:00 +20°C° 0 mm 2 m/S 725 mmHg 31%
    12:00 +20°C° 0 mm 2 m/S 724 mmHg 31%
    13:00 +21°C° 0 mm 2 m/S 724 mmHg 30%
    14:00 +21°C° 0 mm 2 m/S 723 mmHg 30%
    15:00 +20°C° 0,1 mm 2 m/S 723 mmHg 35%
    16:00 +18°C° 0,1 mm 2 m/S 723 mmHg 39%
    17:00 +16°C° 0,1 mm 1 m/S 723 mmHg 44%
    18:00 +16°C° 0 mm 2 m/S 723 mmHg 46%
    19:00 +15°C° 0 mm 2 m/S 723 mmHg 47%
    20:00 +15°C° 0 mm 2 m/S 723 mmHg 49%
    21:00 +14°C° 0 mm 2 m/S 724 mmHg 51%
    22:00 +14°C° 0 mm 2 m/S 724 mmHg 53%
    23:00 +14°C° 0 mm 2 m/S 724 mmHg 55%

    Morgen, 20 November, Montag

    Zeit Temperatur Niederschläge Wind Luftdruck Luftfeuchtigkeit
    00:00 +13°C° 0 mm 2 m/S 724 mmHg 57%
    01:00 +12°C° 0 mm 3 m/S 724 mmHg 60%
    02:00 +12°C° 0 mm 3 m/S 724 mmHg 62%
    03:00 +11°C° 0 mm 3 m/S 724 mmHg 63%
    04:00 +11°C° 0 mm 3 m/S 723 mmHg 65%
    05:00 +11°C° 0 mm 3 m/S 723 mmHg 66%
    06:00 +11°C° 0 mm 4 m/S 723 mmHg 65%
    07:00 +12°C° 0 mm 4 m/S 723 mmHg 63%
    08:00 +13°C° 0 mm 4 m/S 723 mmHg 62%
    09:00 +14°C° 0 mm 5 m/S 723 mmHg 57%
    10:00 +15°C° 0 mm 5 m/S 723 mmHg 53%
    11:00 +17°C° 0 mm 6 m/S 723 mmHg 48%
    12:00 +17°C° 0 mm 6 m/S 722 mmHg 47%
    13:00 +19°C° 0 mm 6 m/S 722 mmHg 45%
    14:00 +19°C° 0 mm 6 m/S 721 mmHg 43%
    15:00 +18°C° 0,1 mm 4 m/S 721 mmHg 48%
    16:00 +16°C° 0,1 mm 3 m/S 721 mmHg 53%
    17:00 +15°C° 0,1 mm 2 m/S 721 mmHg 58%
    18:00 +15°C° 0,3 mm 2 m/S 720 mmHg 63%
    19:00 +14°C° 0,3 mm 2 m/S 720 mmHg 67%
    20:00 +14°C° 0,3 mm 2 m/S 720 mmHg 72%
    21:00 +13°C° 0,1 mm 2 m/S 720 mmHg 73%
    22:00 +13°C° 0,1 mm 2 m/S 719 mmHg 74%
    23:00 +12°C° 0,1 mm 3 m/S 719 mmHg 76%

    übermorgen, 21 November, Dienstag

    Zeit Temperatur Niederschläge Wind Luftdruck Luftfeuchtigkeit
    00:00 +12°C° 0,1 mm 2 m/S 719 mmHg 77%
    01:00 +12°C° 0,1 mm 2 m/S 719 mmHg 77%
    02:00 +12°C° 0,1 mm 2 m/S 719 mmHg 78%
    03:00 +12°C° 1,4 mm 2 m/S 719 mmHg 82%
    04:00 +11°C° 1,4 mm 1 m/S 719 mmHg 85%
    05:00 +11°C° 1,4 mm 1 m/S 719 mmHg 89%
    06:00 +9°C° 2,7 mm 2 m/S 719 mmHg 90%
    07:00 +9°C° 2,7 mm 3 m/S 719 mmHg 90%
    08:00 +8°C° 2,7 mm 4 m/S 720 mmHg 91%
    09:00 +7°C° 2,6 mm 6 m/S 720 mmHg 87%
    10:00 +6°C° 2,6 mm 7 m/S 720 mmHg 83%
    11:00 +5°C° 2,6 mm 9 m/S 720 mmHg 79%
    12:00 +5°C° 1,1 mm 9 m/S 721 mmHg 79%
    13:00 +4°C° 1,1 mm 8 m/S 722 mmHg 80%
    14:00 +4°C° 1,1 mm 8 m/S 722 mmHg 81%
    15:00 +4°C° 0,5 mm 8 m/S 723 mmHg 82%
    16:00 +4°C° 0,5 mm 7 m/S 724 mmHg 83%
    17:00 +4°C° 0,5 mm 6 m/S 725 mmHg 83%
    18:00 +3°C° 0,4 mm 6 m/S 725 mmHg 84%
    19:00 +3°C° 0,4 mm 5 m/S 726 mmHg 84%
    20:00 +4°C° 0,4 mm 4 m/S 727 mmHg 84%
    21:00 +4°C° 0,2 mm 4 m/S 727 mmHg 83%
    22:00 +4°C° 0,2 mm 3 m/S 728 mmHg 83%
    23:00 +4°C° 0,2 mm 2 m/S 728 mmHg 82%

    22 November, Mittwoch

    Zeit Temperatur Niederschläge Wind Luftdruck Luftfeuchtigkeit
    00:00 +4°C° 0 mm 2 m/S 729 mmHg 82%
    01:00 +4°C° 0 mm 2 m/S 729 mmHg 82%
    02:00 +5°C° 0 mm 1 m/S 729 mmHg 81%
    03:00 +4°C° 0 mm 1 m/S 729 mmHg 82%
    04:00 +4°C° 0 mm 1 m/S 730 mmHg 82%
    05:00 +3°C° 0 mm 1 m/S 730 mmHg 82%
    06:00 +3°C° 0 mm 2 m/S 730 mmHg 81%
    07:00 +3°C° 0 mm 2 m/S 730 mmHg 80%
    08:00 +3°C° 0 mm 2 m/S 731 mmHg 78%
    09:00 +5°C° 0 mm 2 m/S 730 mmHg 74%
    10:00 +6°C° 0 mm 2 m/S 730 mmHg 69%
    11:00 +7°C° 0 mm 3 m/S 730 mmHg 65%
    12:00 +7°C° 0 mm 3 m/S 730 mmHg 63%
    13:00 +7°C° 0 mm 3 m/S 729 mmHg 62%
    14:00 +8°C° 0 mm 3 m/S 729 mmHg 61%
    15:00 +7°C° 0,2 mm 3 m/S 729 mmHg 65%
    16:00 +5°C° 0,2 mm 3 m/S 729 mmHg 69%
    17:00 +5°C° 0,2 mm 3 m/S 729 mmHg 73%
    18:00 +4°C° 0,3 mm 3 m/S 729 mmHg 74%
    19:00 +4°C° 0,3 mm 3 m/S 729 mmHg 76%
    20:00 +4°C° 0,3 mm 4 m/S 729 mmHg 78%
    21:00 +4°C° 0,6 mm 3 m/S 729 mmHg 80%
    22:00 +4°C° 0,6 mm 3 m/S 729 mmHg 82%
    23:00 +4°C° 0,6 mm 3 m/S 728 mmHg 84%

    23 November, Donnerstag

    Zeit Temperatur Niederschläge Wind Luftdruck Luftfeuchtigkeit
    00:00 +4°C° 0,7 mm 3 m/S 728 mmHg 86%
    01:00 +5°C° 0,7 mm 2 m/S 728 mmHg 88%
    02:00 +5°C° 0,7 mm 2 m/S 728 mmHg 89%
    03:00 +5°C° 0,5 mm 2 m/S 729 mmHg 90%
    04:00 +5°C° 0,5 mm 2 m/S 729 mmHg 91%
    05:00 +6°C° 0,5 mm 1 m/S 729 mmHg 92%
    06:00 +6°C° 0,3 mm 1 m/S 730 mmHg 93%
    07:00 +6°C° 0,3 mm 1 m/S 730 mmHg 93%
    08:00 +6°C° 0,3 mm 1 m/S 731 mmHg 93%
    09:00 +6°C° 0,3 mm 1 m/S 731 mmHg 92%
    10:00 +7°C° 0,3 mm 1 m/S 732 mmHg 90%
    11:00 +7°C° 0,3 mm 1 m/S 732 mmHg 89%
    12:00 +6°C° 0,2 mm 2 m/S 732 mmHg 88%
    13:00 +6°C° 0,2 mm 2 m/S 732 mmHg 87%
    14:00 +6°C° 0,2 mm 2 m/S 732 mmHg 86%
    15:00 +6°C° 0,1 mm 2 m/S 732 mmHg 87%
    16:00 +5°C° 0,1 mm 2 m/S 733 mmHg 88%
    17:00 +6°C° 0,1 mm 1 m/S 733 mmHg 89%
    18:00 +6°C° 0,1 mm 1 m/S 734 mmHg 90%
    19:00 +5°C° 0,1 mm 1 m/S 734 mmHg 90%
    20:00 +5°C° 0,1 mm 1 m/S 734 mmHg 90%
    21:00 +5°C° 0 mm 1 m/S 734 mmHg 90%
    22:00 +5°C° 0 mm 1 m/S 735 mmHg 90%
    23:00 +3°C° 0 mm 0 m/S 735 mmHg 90%

    24 November, Freitag

    Zeit Temperatur Niederschläge Wind Luftdruck Luftfeuchtigkeit
    00:00 +3°C° 0 mm 0 m/S 735 mmHg 90%
    01:00 +3°C° 0 mm 0 m/S 735 mmHg 90%
    02:00 +4°C° 0 mm 1 m/S 735 mmHg 90%
    03:00 +4°C° 0 mm 1 m/S 735 mmHg 90%
    04:00 +4°C° 0 mm 1 m/S 735 mmHg 89%
    05:00 +4°C° 0 mm 1 m/S 735 mmHg 89%
    06:00 +4°C° 0 mm 1 m/S 736 mmHg 88%
    07:00 +5°C° 0 mm 1 m/S 736 mmHg 87%
    08:00 +5°C° 0 mm 1 m/S 736 mmHg 85%
    09:00 +6°C° 0 mm 1 m/S 736 mmHg 83%
    10:00 +6°C° 0 mm 1 m/S 736 mmHg 80%
    11:00 +7°C° 0 mm 1 m/S 736 mmHg 78%
    12:00 +7°C° 0 mm 1 m/S 736 mmHg 77%
    13:00 +7°C° 0 mm 1 m/S 736 mmHg 77%
    14:00 +7°C° 0 mm 1 m/S 736 mmHg 77%
    15:00 +7°C° 0 mm 1 m/S 736 mmHg 80%
    16:00 +6°C° 0 mm 1 m/S 736 mmHg 82%
    17:00 +6°C° 0 mm 1 m/S 736 mmHg 85%
    18:00 +5°C° 0 mm 1 m/S 736 mmHg 86%
    19:00 +5°C° 0 mm 1 m/S 737 mmHg 87%
    20:00 +5°C° 0 mm 1 m/S 737 mmHg 89%
    21:00 +4°C° 0 mm 0 m/S 737 mmHg 89%
    22:00 +3°C° 0 mm 0 m/S 737 mmHg 90%
    23:00 +3°C° 0 mm 0 m/S 737 mmHg 90%
    Mehr zeigen